Flag for Jordan Weather past 2 weeks in Amman, Jordan

Now
90 °F

Haze.


Feels Like: 87 °F
Forecast: 76 / 91 °F
Wind: 8 mph from West

Location: Amman Airport

Current Time: Aug 5, 2015 at 11:33:25 AM

Latest Report: Aug 5, 2015 at 11:00 AM


Visibility: 2 mi

Pressure: 29.89 "Hg (27.28 "Hg at 816m altitude)

Humidity: 27%

Dew point: 52 °F

Location of AmmanLocation

Historic Weather in Amman — Graph

°F

Amman temperature yesterday

Maximum temperature yesterday: 102 °F (at 1:00 PM)
Minimum temperature yesterday: 84 °F (at 5:00 AM)
Average temperature yesterday: 93 °F

Past Weeks' High & Low Weather Summary

 TemperatureHumidityPressure
High106 °F (Aug 2, 3:00 PM)69% (Jul 28, 6:00 AM)29.95 "Hg (Jul 28, 6:00 AM)
Low70 °F (Jul 28, 6:00 AM)9% (Jul 23, 3:00 PM)29.77 "Hg (Jul 21, 3:00 PM)
Average86 °F28%29.86 "Hg
* Reported Jul 21 10:00 AM — Aug 5 10:00 AM, Amman, Weather by CustomWeather, © 2015

Note: Actual official high and low records may vary slightly from our data, if they occured in-between our weather recording intervals... More about our weather records

Advertising

Amman weather history for previous 24 hours

 ConditionsComfort  
Time TempWeatherWind HumidityBarometerVisibility
10:00 AM
Wed, Aug 5
91 °FHaze.5 mph23%29.89 "Hg2 mi
9:00 AM90 °FHaze.No wind36%29.89 "Hg2 mi
8:00 AM84 °FHaze.No wind45%29.89 "Hg1 mi
7:00 AM81 °FHaze.No wind51%29.89 "Hg2 mi
6:00 AM77 °FHaze.5 mph57%29.86 "Hg3 mi
5:00 AM82 °FHaze.3 mph45%29.86 "Hg4 mi
4:00 AM82 °FHaze.9 mph48%29.86 "Hg3 mi
3:00 AM84 °FHaze.9 mph45%29.86 "Hg3 mi
2:00 AM88 °FHaze.9 mph33%29.92 "Hg3 mi
1:00 AM90 °FHaze.No wind33%29.92 "Hg3 mi
12:00 AM88 °FHaze.No wind35%29.92 "Hg3 mi
11:00 PM
Tue, Aug 4
90 °FHaze.7 mph36%29.89 "Hg3 mi
10:00 PM88 °FHaze.7 mph38%29.89 "Hg3 mi
9:00 PM90 °FHaze.7 mph41%29.89 "Hg2 mi
8:00 PM90 °FHaze.12 mph36%29.83 "Hg2 mi
7:00 PM95 °FHaze.12 mph30%29.83 "Hg2 mi
6:12 PM95 °FHaze.12 mph30%29.83 "Hg2 mi
6:00 PM97 °FHaze.12 mph27%29.83 "Hg2 mi
5:00 PM100 °FHaze.12 mph14%29.86 "Hg2 mi
4:00 PM102 °FHaze.12 mph13%29.86 "Hg2 mi
3:00 PM102 °FHaze.12 mph14%29.86 "Hg2 mi
2:00 PM100 °FHaze.7 mph14%29.89 "Hg2 mi
1:00 PM102 °FHaze.5 mph14%29.89 "Hg2 mi
12:00 PM97 °FHaze.12 mph13%29.89 "Hg2 mi
11:00 AM97 °FHaze.5 mph13%29.89 "Hg2 mi
Weather by CustomWeather, © 2015

See weather overviewHow to use our weather pages